Accueil
METAR-TAF:

METAR-TAF

Aéroports :

Lyndonville, Vermont, États-Unis

latitude: 44-34-09N, longitude: 072-01-05W, altitude: 362 m

Observation

Le bulletin a été fait il y a 27 minutes, à 20:15 UTC
Vent 5 kt de ouest/sud-ouest
Température 3°C
Humidité 56%
Pression 1019 hPa
Visibilité: 16.1 km
Ciel couvert à une hauteur de 4000 ft

METAR: KCDA 222015Z AUTO 25005KT 10SM OVC040 03/M05 A3009 RMK AO2 T00331047

Heure: 16:42 (20:42 UTC)


TAF: absent

Observations et prévisions météorologiques de plus de 4000 aéroports (messages METAR et TAF).

Les stations disponibles sont représentées par des disques jaunes et rouges sur la carte.

Passer la souris dessus pour voir le nom de la station.

Cliquer dessus pour voir les observations et prévisions météorologiques.

Pour changer de carte: cliquez sur les boutons verts avec une croix noire pour zoomer, sur le bouton vert avec un tiret pour effectuer un zoom arrière, ou sur les flèches vertes pour les cartes adjacentes.


METAR-TAF: